Terminal Aerodrome Forecast
Issued by NWS Quad Cities IA IL

Home | Current Version | Previous Version | Text Only | Print | Product List | Glossary On
Versions: 1 2 3 4 5 6 7 8 9 10 11 12 13 14 15 16 17 18 19 20 21 22 23 24 25 26 27 28 29 30 31 32 33 34 35 36 37 38 39 40 41 42
000
FTUS43 KDVN 271027 AAC
TAFDBQ
TAF AMD
KDBQ 271027Z 2710/2806 04008KT 4SM BR OVC015
      TEMPO 2710/2713 1SM BR BKN002
     FM271300 11005KT 6SM BR OVC012
     FM271600 20005KT P6SM FEW035 SCT250
     FM280500 02004KT 4SM BR SCT250=

USA.gov is the U.S. government's official web portal to all federal, state and local government web resources and services.